User: anonymous   Login
Location: Burgerwiesen
(48.6500°N, 15.6167°E)
Time: 10:48:47
(UTC+00:00)
Language:

STARLINK-1243 - Orbit

View from above orbital plane
View from above orbital plane
View from above satellite
View from above satellite

Ground track
Ground track

The orbit data is extracted from the following two-line orbital elements,

1 45234U 20012BJ  20190.91667824  .00023400  00000-0  16198-2 0  9994
2 45234  52.9987 338.1905 0001251 102.0457 127.4983 15.05580024 21970
Epoch (UTC): 08 July 2020 22:00:01
Eccentricity: 0.0001251
inclination: 52.9987°
perigee height: 549 km
apogee height: 550 km
right ascension of ascending node: 338.1905°
argument of perigee: 102.0457°
revolutions per day: 15.05580024
mean anomaly at epoch: 127.4983°
orbit number at epoch: 2197

The dashed part of the orbit path shows where the satellite is in the earth's shadow,  

DLR